sat.trackr.live / text

‹ back to catalog

STARLINK-30371

NORAD 57735 · 2023-131D

PAYLOAD ACTIVE UNKNOWN

§ Identity

Operator
Country
US
Launch date
2023-09-01
Launch site
AFETR
Launch vehicle
Mass (kg)
RCS (m²)

Purposes: comms

External: N2YO · Heavens-Above · Gunter

§ Orbital elements

Epoch: 2026-09-20T10:39:14.592960Z

Period
94.27 min
Inclination
43.0065°
Eccentricity
0.0002497
Mean motion
15.27582617 rev/d
Perigee alt
481.3 km
Apogee alt
484.8 km
Semi-major
6,861.2 km
B*
2.6862e-6
RAAN
160.0706°
Arg perigee
255.7877°
Mean anomaly
104.2698°
Rev number
16,961

§ Raw data

STARLINK-303711 57735U 23131D   26263.44391890 -.00000189  00000+0  26862-5 0  99912 57735  43.0065 160.0706 0002497 255.7877 104.2698 15.27582617169617

JSON: /api/v1/satellites/57735 · /tle

For live sub-satellite position, see the globe view (requires WebGL).

§ Visibility from observer

Set your observer location to see the next 7 days of passes ≥ 10°. The values pass through the URL so the page stays shareable.

No JS? Fill the form by hand. The geolocation button needs JavaScript.